カタログに戻る

COSMOS 2286

運用中軍事HEO
NORAD 23194·PAYLOAD·🇷🇺 Russia

打ち上げ Aug 5, 1994 から Plesetsk Cosmodrome

Loading…

次のパス (今後24時間)

TLE

最新Source: Space-Track

元期: Sep 11, 2026, 04:25 UTC

1 23194U 94048A   26254.18443985  .00000286  00000-0  00000-0 0  9991
2 23194  66.8645 147.1976 5406393 117.6339 306.7565  2.00838621235193

AllMySatでCOSMOS 2286をリアルタイム追跡

Download on the App Store